User: anonymous   Login
Location: Drayton Valley
(53.2170°N, 114.9830°W)
Time: 02:36:28
(UTC-06:00)
Language:

Cosmos 1302 Rocket - Orbit

View from above orbital plane
View from above orbital plane
View from above satellite
View from above satellite

Ground track
Ground track

The orbit data is extracted from the following two-line orbital elements,

1 12792U 81084B   14295.44282194  .00000403  00000-0  14414-3 0  6460
2 12792 074.0322 018.4146 0013368 184.0074 251.3032 14.37156084735875
Epoch (UTC): 22 October 2014 10:37:39
Eccentricity: 0.0013368
inclination: 74.0322°
perigee height: 758 km
apogee height: 777 km
right ascension of ascending node: 18.4146°
argument of perigee: 184.0074°
revolutions per day: 14.37156084
mean anomaly at epoch: 251.3032°
orbit number at epoch: 73587

The dashed part of the orbit path shows where the satellite is in the earth's shadow,  

DLR